HYT9095 ZGHA-ZPPP

Flight info

Callsign HYT9095
Flight time 1h 47m
Altitude 32100
Route OLT9X OLTUS W226 IPMUG W611 BIVAV W138 DYG W140 HUY A581 QNX W136 XISLI XISLI1A
Aircraft B752/M-SDE2E3FGHIJ3J4J7RWXY/LB1

Departure

Time 2026-04-24 05:02
Airport Changsha Huanghua International Airport (ZGHA)

Arrival

Time 2026-04-24 06:49
Airport Kunming Changshui International Airport (ZPPP)
Time Latitude Longitude Altitude Speed Heading
2026-04-24 04:47 28.18350 113.21703 224 ft 0 kts 267°
2026-04-24 04:54 28.18350 113.21704 224 ft 1 kts 268°
2026-04-24 04:54 28.18351 113.21721 224 ft 2 kts 267°
2026-04-24 04:54 28.18351 113.21738 224 ft 2 kts 267°
2026-04-24 04:54 28.18352 113.21755 224 ft 2 kts 267°
2026-04-24 04:55 28.18353 113.21772 224 ft 2 kts 267°
2026-04-24 04:55 28.18353 113.21784 224 ft 0 kts 267°
2026-04-24 04:55 28.18355 113.21800 224 ft 2 kts 243°
2026-04-24 04:55 28.18364 113.21813 224 ft 2 kts 219°
2026-04-24 04:56 28.18378 113.21821 224 ft 2 kts 194°
2026-04-24 04:56 28.18387 113.21822 224 ft 1 kts 178°
2026-04-24 04:56 28.18392 113.21822 224 ft 0 kts 178°
2026-04-24 04:57 28.18391 113.21822 224 ft 0 kts 178°
2026-04-24 04:58 28.18374 113.21823 224 ft 8 kts 178°
2026-04-24 04:58 28.18304 113.21827 224 ft 11 kts 177°
2026-04-24 04:58 28.18205 113.21833 224 ft 17 kts 176°
2026-04-24 04:59 28.18068 113.21842 224 ft 20 kts 176°
2026-04-24 04:59 28.17954 113.21850 224 ft 14 kts 177°
2026-04-24 04:59 28.17849 113.21855 224 ft 15 kts 177°
2026-04-24 04:59 28.17753 113.21888 224 ft 14 kts 125°
2026-04-24 05:00 28.17744 113.21913 224 ft 0 kts 98°
2026-04-24 05:00 28.17744 113.21918 224 ft 0 kts 98°
2026-04-24 05:01 28.17742 113.21938 224 ft 11 kts 91°
2026-04-24 05:01 28.17798 113.22042 224 ft 21 kts
2026-04-24 05:01 28.18151 113.22019 224 ft 93 kts 359°
2026-04-24 05:01 28.19088 113.21963 290 ft 169 kts 356°
2026-04-24 05:02 28.20375 113.21828 1041 ft 201 kts 354°
2026-04-24 05:02 28.21704 113.21725 2273 ft 194 kts 359°
2026-04-24 05:02 28.23142 113.21674 2736 ft 214 kts 358°
2026-04-24 05:02 28.24597 113.21600 3611 ft 212 kts 358°
2026-04-24 05:03 28.26087 113.21519 4362 ft 218 kts 358°
2026-04-24 05:03 28.27573 113.21629 5224 ft 216 kts 18°
2026-04-24 05:03 28.28798 113.22607 5951 ft 222 kts 50°
2026-04-24 05:03 28.29680 113.24001 6751 ft 224 kts 52°
2026-04-24 05:04 28.30598 113.25449 7459 ft 229 kts 52°
2026-04-24 05:04 28.31517 113.26941 8188 ft 234 kts 52°
2026-04-24 05:04 28.32452 113.28482 8908 ft 240 kts 53°
2026-04-24 05:04 28.33389 113.30041 9664 ft 246 kts 53°
2026-04-24 05:05 28.34384 113.31704 10082 ft 267 kts 53°
2026-04-24 05:05 28.35465 113.33521 10543 ft 288 kts 53°
2026-04-24 05:05 28.36621 113.35469 10968 ft 309 kts 53°
2026-04-24 05:05 28.38032 113.37398 11373 ft 325 kts 38°
2026-04-24 05:06 28.39956 113.38802 11764 ft 341 kts 21°
2026-04-24 05:06 28.42305 113.39532 12128 ft 358 kts
2026-04-24 05:06 28.44845 113.39431 12714 ft 367 kts 347°
2026-04-24 05:06 28.47232 113.38495 13577 ft 367 kts 331°
2026-04-24 05:07 28.49325 113.36834 14263 ft 372 kts 315°
2026-04-24 05:07 28.50926 113.34564 15069 ft 373 kts 299°
2026-04-24 05:07 28.51937 113.31834 15811 ft 376 kts 283°
2026-04-24 05:07 28.52253 113.28905 16570 ft 379 kts 269°
2026-04-24 05:08 28.51985 113.25917 17363 ft 381 kts 258°
2026-04-24 05:08 28.51199 113.23091 18201 ft 381 kts 247°
2026-04-24 05:08 28.49922 113.20445 18876 ft 387 kts 237°
2026-04-24 05:08 28.48191 113.18061 19727 ft 388 kts 230°
2026-04-24 05:09 28.46386 113.15793 20508 ft 388 kts 231°
2026-04-24 05:09 28.44593 113.13532 21127 ft 393 kts 230°
2026-04-24 05:09 28.42756 113.11218 21921 ft 392 kts 231°
2026-04-24 05:09 28.40937 113.08928 22592 ft 394 kts 231°
2026-04-24 05:10 28.39086 113.06601 23195 ft 398 kts 231°
2026-04-24 05:10 28.37233 113.04272 23881 ft 399 kts 231°
2026-04-24 05:10 28.35460 113.01884 24473 ft 400 kts 236°
2026-04-24 05:10 28.34004 112.99191 24943 ft 403 kts 244°
2026-04-24 05:11 28.32878 112.96280 25592 ft 402 kts 250°
2026-04-24 05:11 28.31944 112.93304 26057 ft 406 kts 252°
2026-04-24 05:11 28.31125 112.90222 26611 ft 407 kts 254°
2026-04-24 05:11 28.30392 112.87163 27310 ft 404 kts 255°
2026-04-24 05:12 28.29708 112.84095 27895 ft 403 kts 256°
2026-04-24 05:12 28.29056 112.81007 28606 ft 399 kts 256°
2026-04-24 05:12 28.28439 112.77988 29232 ft 397 kts 257°
2026-04-24 05:12 28.27832 112.74938 29839 ft 395 kts 257°
2026-04-24 05:13 28.26666 112.68954 31095 ft 387 kts 258°
2026-04-24 05:13 28.26093 112.65987 31662 ft 384 kts 258°
2026-04-24 05:13 28.25528 112.63034 32157 ft 383 kts 258°
2026-04-24 05:14 28.24966 112.60097 32153 ft 385 kts 258°
2026-04-24 05:14 28.23851 112.54264 32160 ft 376 kts 258°
2026-04-24 05:15 28.22736 112.48437 32163 ft 379 kts 258°
2026-04-24 05:15 28.21620 112.42605 32159 ft 378 kts 258°
2026-04-24 05:16 28.20508 112.36816 32158 ft 380 kts 258°
2026-04-24 05:16 28.19384 112.30971 32173 ft 379 kts 258°
2026-04-24 05:17 28.18257 112.25127 32166 ft 380 kts 258°
2026-04-24 05:17 28.18034 112.19180 32179 ft 381 kts 274°
2026-04-24 05:18 28.18719 112.13247 32173 ft 382 kts 275°
2026-04-24 05:18 28.19415 112.07302 32171 ft 381 kts 275°
2026-04-24 05:19 28.20120 112.01347 32175 ft 383 kts 275°
2026-04-24 05:19 28.21561 111.95552 32181 ft 389 kts 292°
2026-04-24 05:20 28.24452 111.90238 32175 ft 396 kts 297°
2026-04-24 05:20 28.27404 111.85026 32174 ft 393 kts 297°
2026-04-24 05:21 28.30380 111.79800 32170 ft 395 kts 297°
2026-04-24 05:21 28.33370 111.74560 32168 ft 395 kts 297°
2026-04-24 05:22 28.36345 111.69348 32166 ft 394 kts 297°
2026-04-24 05:22 28.39338 111.64098 32165 ft 396 kts 297°
2026-04-24 05:23 28.42328 111.58852 32162 ft 396 kts 297°
2026-04-24 05:23 28.45298 111.53632 32161 ft 395 kts 297°
2026-04-24 05:24 28.48288 111.48373 32161 ft 396 kts 297°
2026-04-24 05:24 28.51254 111.43147 32163 ft 394 kts 297°
2026-04-24 05:25 28.54235 111.37890 32160 ft 395 kts 297°
2026-04-24 05:25 28.57192 111.32669 32177 ft 394 kts 297°
2026-04-24 05:26 28.60154 111.27433 32177 ft 396 kts 297°
2026-04-24 05:26 28.63134 111.22156 32175 ft 394 kts 297°
2026-04-24 05:27 28.66094 111.16914 32171 ft 396 kts 297°
2026-04-24 05:27 28.69081 111.11684 32176 ft 394 kts 297°
2026-04-24 05:28 28.72072 111.06438 32177 ft 395 kts 297°
2026-04-24 05:28 28.75057 111.01195 32177 ft 395 kts 297°
2026-04-24 05:29 28.78041 110.95950 32178 ft 394 kts 297°
2026-04-24 05:29 28.81024 110.90698 32178 ft 396 kts 297°
2026-04-24 05:30 28.84006 110.85442 32175 ft 395 kts 297°
2026-04-24 05:30 28.86739 110.80062 32181 ft 388 kts 287°
2026-04-24 05:31 28.87698 110.74117 32182 ft 381 kts 267°
2026-04-24 05:31 28.86559 110.68305 32184 ft 382 kts 248°
2026-04-24 05:32 28.83456 110.63285 32184 ft 391 kts 232°
2026-04-24 05:32 28.80442 110.58244 32178 ft 384 kts 246°
2026-04-24 05:33 28.78400 110.52694 32177 ft 382 kts 252°
2026-04-24 05:33 28.76726 110.46912 32176 ft 383 kts 255°
2026-04-24 05:34 28.74505 110.38213 32175 ft 381 kts 256°
2026-04-24 05:34 28.73088 110.32371 32193 ft 382 kts 256°
2026-04-24 05:35 28.71700 110.26577 32192 ft 383 kts 256°
2026-04-24 05:35 28.70303 110.20718 32191 ft 383 kts 256°
2026-04-24 05:36 28.68913 110.14880 32194 ft 383 kts 256°
2026-04-24 05:36 28.67511 110.09003 32197 ft 384 kts 256°
2026-04-24 05:37 28.66118 110.03175 32197 ft 383 kts 256°
2026-04-24 05:37 28.64718 109.97324 32199 ft 384 kts 256°
2026-04-24 05:38 28.63310 109.91451 32195 ft 385 kts 256°
2026-04-24 05:38 28.61905 109.85603 32189 ft 384 kts 256°
2026-04-24 05:39 28.60488 109.79720 32186 ft 386 kts 256°
2026-04-24 05:39 28.59072 109.73852 32178 ft 385 kts 256°
2026-04-24 05:40 28.57658 109.67998 32180 ft 385 kts 256°
2026-04-24 05:40 28.56236 109.62132 32187 ft 386 kts 256°
2026-04-24 05:41 28.54806 109.56238 32187 ft 385 kts 256°
2026-04-24 05:41 28.53378 109.50370 32186 ft 386 kts 256°
2026-04-24 05:42 28.51938 109.44463 32185 ft 386 kts 256°
2026-04-24 05:42 28.50507 109.38602 32182 ft 386 kts 256°
2026-04-24 05:43 28.49068 109.32728 32200 ft 388 kts 256°
2026-04-24 05:43 28.47616 109.26804 32197 ft 388 kts 256°
2026-04-24 05:44 28.46166 109.20905 32193 ft 387 kts 256°
2026-04-24 05:44 28.44657 109.15060 32195 ft 389 kts 251°
2026-04-24 05:45 28.42310 109.09498 32198 ft 391 kts 247°
2026-04-24 05:45 28.39890 109.03978 32201 ft 390 kts 246°
2026-04-24 05:46 28.37449 108.98461 32202 ft 391 kts 246°
2026-04-24 05:46 28.35019 108.92989 32207 ft 390 kts 246°
2026-04-24 05:47 28.32570 108.87485 32208 ft 392 kts 246°
2026-04-24 05:47 28.30102 108.81953 32214 ft 392 kts 247°
2026-04-24 05:48 28.27644 108.76447 32213 ft 392 kts 247°
2026-04-24 05:48 28.25188 108.70953 32218 ft 393 kts 246°
2026-04-24 05:49 28.22704 108.65410 32213 ft 392 kts 247°
2026-04-24 05:49 28.20241 108.59917 32214 ft 393 kts 247°
2026-04-24 05:50 28.17757 108.54385 32209 ft 394 kts 247°
2026-04-24 05:50 28.15268 108.48851 32207 ft 392 kts 247°
2026-04-24 05:51 28.12786 108.43337 32206 ft 396 kts 247°
2026-04-24 05:51 28.10286 108.37794 32206 ft 394 kts 246°
2026-04-24 05:52 28.07798 108.32283 32220 ft 395 kts 246°
2026-04-24 05:52 28.05281 108.26717 32219 ft 397 kts 246°
2026-04-24 05:53 28.02765 108.21159 32221 ft 397 kts 246°
2026-04-24 05:53 28.00263 108.15643 32219 ft 395 kts 247°
2026-04-24 05:54 27.97739 108.10080 32222 ft 398 kts 246°
2026-04-24 05:54 27.95219 108.04537 32219 ft 398 kts 246°
2026-04-24 05:55 27.92676 107.98949 32221 ft 398 kts 246°
2026-04-24 05:55 27.90141 107.93388 32222 ft 398 kts 246°
2026-04-24 05:56 27.87617 107.87857 32223 ft 397 kts 246°
2026-04-24 05:56 27.85079 107.82306 32233 ft 399 kts 246°
2026-04-24 05:57 27.82537 107.76737 32230 ft 400 kts 247°
2026-04-24 05:57 27.80049 107.71152 32233 ft 399 kts 247°
2026-04-24 05:58 27.77547 107.65545 32239 ft 399 kts 247°
2026-04-24 05:58 27.75049 107.59953 32236 ft 399 kts 247°
2026-04-24 05:59 27.72590 107.54455 32238 ft 401 kts 247°
2026-04-24 05:59 27.70086 107.48866 32227 ft 400 kts 247°
2026-04-24 06:00 27.67560 107.43234 32234 ft 402 kts 247°
2026-04-24 06:00 27.65037 107.37618 32234 ft 402 kts 247°
2026-04-24 06:01 27.62520 107.32025 32250 ft 402 kts 247°
2026-04-24 06:01 27.59986 107.26398 32246 ft 403 kts 246°
2026-04-24 06:02 27.57447 107.20768 32252 ft 402 kts 246°
2026-04-24 06:02 27.54925 107.15175 32255 ft 402 kts 247°
2026-04-24 06:03 27.52380 107.09538 32253 ft 403 kts 247°
2026-04-24 06:03 27.49853 107.03951 32252 ft 404 kts 247°
2026-04-24 06:04 27.47302 106.98312 32261 ft 403 kts 247°
2026-04-24 06:04 27.44796 106.92699 32257 ft 404 kts 247°
2026-04-24 06:05 27.42273 106.87053 32258 ft 404 kts 247°
2026-04-24 06:05 27.39744 106.81404 32250 ft 404 kts 248°
2026-04-24 06:06 27.37209 106.75745 32245 ft 404 kts 247°
2026-04-24 06:06 27.34681 106.70141 32245 ft 404 kts 248°
2026-04-24 06:07 27.32120 106.64471 32245 ft 405 kts 248°
2026-04-24 06:07 27.29578 106.58852 32253 ft 404 kts 248°
2026-04-24 06:08 27.27023 106.53207 32253 ft 406 kts 248°
2026-04-24 06:08 27.24473 106.47588 32251 ft 405 kts 248°
2026-04-24 06:09 27.21918 106.41962 32268 ft 406 kts 248°
2026-04-24 06:09 27.19362 106.36343 32270 ft 404 kts 248°
2026-04-24 06:10 27.16784 106.30669 32282 ft 407 kts 248°
2026-04-24 06:11 27.12933 106.22218 32290 ft 407 kts 248°
2026-04-24 06:11 27.10366 106.16590 32285 ft 406 kts 248°
2026-04-24 06:12 27.07778 106.10926 32287 ft 407 kts 248°
2026-04-24 06:12 27.05212 106.05308 32281 ft 407 kts 249°
2026-04-24 06:13 27.03528 105.99328 32295 ft 400 kts 262°
2026-04-24 06:13 27.02341 105.93261 32296 ft 398 kts 262°
2026-04-24 06:14 27.01177 105.87221 32301 ft 399 kts 262°
2026-04-24 06:14 27.00016 105.81156 32296 ft 398 kts 262°
2026-04-24 06:15 26.98854 105.75082 32304 ft 400 kts 262°
2026-04-24 06:15 26.97686 105.68984 32310 ft 398 kts 262°
2026-04-24 06:16 26.96530 105.62960 32312 ft 399 kts 262°
2026-04-24 06:16 26.95364 105.56895 32312 ft 399 kts 262°
2026-04-24 06:17 26.94191 105.50813 32318 ft 399 kts 262°
2026-04-24 06:17 26.93019 105.44749 32323 ft 399 kts 262°
2026-04-24 06:18 26.91839 105.38658 32327 ft 399 kts 262°
2026-04-24 06:18 26.90666 105.32619 32336 ft 399 kts 262°
2026-04-24 06:19 26.89483 105.26539 32333 ft 401 kts 262°
2026-04-24 06:19 26.88294 105.20448 32334 ft 400 kts 262°
2026-04-24 06:20 26.87103 105.14360 32330 ft 399 kts 262°
2026-04-24 06:20 26.85912 105.08285 32337 ft 401 kts 262°
2026-04-24 06:21 26.84722 105.02229 32336 ft 399 kts 262°
2026-04-24 06:21 26.83519 104.96123 32343 ft 401 kts 262°
2026-04-24 06:22 26.82320 104.90048 32345 ft 402 kts 262°
2026-04-24 06:22 26.81109 104.83960 32358 ft 399 kts 262°
2026-04-24 06:23 26.79897 104.77889 32370 ft 402 kts 262°
2026-04-24 06:23 26.78683 104.71827 32374 ft 401 kts 262°
2026-04-24 06:24 26.77392 104.65751 32379 ft 404 kts 257°
2026-04-24 06:24 26.74661 104.60168 32391 ft 420 kts 237°
2026-04-24 06:25 26.70300 104.55682 32392 ft 431 kts 226°
2026-04-24 06:25 26.65667 104.51442 32388 ft 429 kts 226°
2026-04-24 06:26 26.61014 104.47202 32380 ft 431 kts 226°
2026-04-24 06:26 26.56393 104.43008 32375 ft 429 kts 226°
2026-04-24 06:27 26.51716 104.38768 32376 ft 431 kts 226°
2026-04-24 06:27 26.47060 104.34552 32376 ft 431 kts 225°
2026-04-24 06:28 26.42418 104.30353 32154 ft 439 kts 225°
2026-04-24 06:28 26.40001 104.28165 31648 ft 446 kts 225°
2026-04-24 06:28 26.37581 104.25983 31150 ft 446 kts 225°
2026-04-24 06:28 26.35183 104.23820 30651 ft 446 kts 225°
2026-04-24 06:29 26.32762 104.21636 30160 ft 447 kts 225°
2026-04-24 06:29 26.30330 104.19444 29662 ft 448 kts 225°
2026-04-24 06:29 26.27928 104.17280 29167 ft 450 kts 225°
2026-04-24 06:29 26.25475 104.15070 28665 ft 454 kts 224°
2026-04-24 06:30 26.22996 104.12839 28163 ft 453 kts 224°
2026-04-24 06:30 26.20562 104.10651 27669 ft 448 kts 224°
2026-04-24 06:30 26.18163 104.08495 27176 ft 445 kts 224°
2026-04-24 06:30 26.15748 104.06325 26678 ft 442 kts 224°
2026-04-24 06:31 26.13351 104.04173 26185 ft 440 kts 224°
2026-04-24 06:31 26.11001 104.02062 25703 ft 438 kts 224°
2026-04-24 06:31 26.08625 103.99931 25216 ft 435 kts 224°
2026-04-24 06:31 26.06264 103.97813 24726 ft 432 kts 224°
2026-04-24 06:32 26.03939 103.95729 24252 ft 430 kts 223°
2026-04-24 06:32 26.01615 103.93647 23772 ft 429 kts 223°
2026-04-24 06:32 25.99305 103.91567 23285 ft 425 kts 225°
2026-04-24 06:32 25.97253 103.89275 22806 ft 417 kts 235°
2026-04-24 06:33 25.95555 103.86706 22350 ft 412 kts 239°
2026-04-24 06:33 25.93909 103.84087 21888 ft 411 kts 239°
2026-04-24 06:33 25.92283 103.81490 21428 ft 409 kts 239°
2026-04-24 06:33 25.90676 103.78907 20979 ft 406 kts 240°
2026-04-24 06:34 25.89048 103.76331 20498 ft 406 kts 237°
2026-04-24 06:34 25.87150 103.74040 20034 ft 409 kts 226°
2026-04-24 06:34 25.84901 103.72083 19583 ft 409 kts 220°
2026-04-24 06:34 25.82600 103.70213 19119 ft 407 kts 220°
2026-04-24 06:35 25.80313 103.68366 18657 ft 407 kts 220°
2026-04-24 06:35 25.78021 103.66528 18197 ft 404 kts 220°
2026-04-24 06:35 25.75752 103.64716 17739 ft 399 kts 220°
2026-04-24 06:35 25.73517 103.62934 17288 ft 398 kts 219°
2026-04-24 06:36 25.71245 103.61131 16853 ft 396 kts 219°
2026-04-24 06:36 25.69020 103.59370 16413 ft 392 kts 219°
2026-04-24 06:36 25.66828 103.57636 15968 ft 388 kts 219°
2026-04-24 06:36 25.64644 103.55910 15523 ft 384 kts 218°
2026-04-24 06:37 25.62456 103.54181 15082 ft 380 kts 218°
2026-04-24 06:37 25.60323 103.52497 14656 ft 376 kts 218°
2026-04-24 06:37 25.58197 103.50819 14280 ft 372 kts 218°
2026-04-24 06:37 25.56106 103.49168 13925 ft 370 kts 218°
2026-04-24 06:38 25.54000 103.47508 13553 ft 369 kts 218°
2026-04-24 06:38 25.51906 103.45856 13152 ft 366 kts 218°
2026-04-24 06:38 25.49859 103.44244 12756 ft 362 kts 217°
2026-04-24 06:38 25.47816 103.42635 12450 ft 357 kts 217°
2026-04-24 06:39 25.45839 103.41079 12288 ft 341 kts 217°
2026-04-24 06:39 25.43956 103.39599 12282 ft 321 kts 217°
2026-04-24 06:39 25.42179 103.38201 12274 ft 303 kts 217°
2026-04-24 06:39 25.40512 103.36888 12283 ft 287 kts 217°
2026-04-24 06:40 25.38924 103.35640 12289 ft 271 kts 217°
2026-04-24 06:40 25.37417 103.34456 12294 ft 257 kts 217°
2026-04-24 06:40 25.35981 103.33328 12288 ft 248 kts 217°
2026-04-24 06:40 25.34579 103.32224 12303 ft 253 kts 217°
2026-04-24 06:41 25.33333 103.30844 12322 ft 254 kts 242°
2026-04-24 06:41 25.32815 103.28966 12130 ft 259 kts 270°
2026-04-24 06:41 25.33194 103.27068 11881 ft 257 kts 298°
2026-04-24 06:41 25.34273 103.25508 11626 ft 254 kts 310°
2026-04-24 06:42 25.35420 103.24014 11314 ft 255 kts 308°
2026-04-24 06:42 25.36539 103.22486 11028 ft 253 kts 306°
2026-04-24 06:42 25.37324 103.20789 10761 ft 249 kts 279°
2026-04-24 06:42 25.37260 103.18881 10323 ft 253 kts 249°
2026-04-24 06:43 25.36320 103.17307 10208 ft 242 kts 222°
2026-04-24 06:43 25.35068 103.16117 10162 ft 231 kts 220°
2026-04-24 06:43 25.33869 103.15002 10163 ft 217 kts 219°
2026-04-24 06:43 25.32731 103.13975 10169 ft 204 kts 219°
2026-04-24 06:44 25.31634 103.12979 10168 ft 204 kts 220°
2026-04-24 06:44 25.30525 103.11970 10176 ft 211 kts 220°
2026-04-24 06:44 25.29384 103.10908 10168 ft 213 kts 220°
2026-04-24 06:44 25.28252 103.09880 10148 ft 209 kts 220°
2026-04-24 06:45 25.27131 103.08875 10138 ft 208 kts 219°
2026-04-24 06:45 25.25984 103.07858 10138 ft 211 kts 219°
2026-04-24 06:45 25.24808 103.06822 9913 ft 219 kts 219°
2026-04-24 06:45 25.23618 103.05782 9646 ft 217 kts 219°
2026-04-24 06:46 25.22419 103.04734 9374 ft 216 kts 218°
2026-04-24 06:46 25.21239 103.03708 9099 ft 215 kts 219°
2026-04-24 06:46 25.20085 103.02705 8880 ft 208 kts 218°
2026-04-24 06:46 25.18989 103.01754 8662 ft 185 kts 218°
2026-04-24 06:47 25.18029 103.00921 8366 ft 166 kts 218°
2026-04-24 06:47 25.17175 103.00181 8123 ft 145 kts 218°
2026-04-24 06:47 25.16431 102.99536 7884 ft 134 kts 218°
2026-04-24 06:47 25.15666 102.98900 7712 ft 135 kts 216°
2026-04-24 06:48 25.14919 102.98279 7619 ft 135 kts 217°
2026-04-24 06:48 25.14196 102.97654 7466 ft 130 kts 218°
2026-04-24 06:48 25.13480 102.97014 7337 ft 131 kts 219°
2026-04-24 06:48 25.12767 102.96394 7124 ft 138 kts 221°
2026-04-24 06:49 25.12000 102.95711 6992 ft 137 kts 219°
2026-04-24 06:49 25.11288 102.95094 6916 ft 117 kts 210°
2026-04-24 06:49 25.10772 102.94651 6916 ft 73 kts 218°
2026-04-24 06:49 25.10471 102.94388 6916 ft 31 kts 224°
2026-04-24 06:50 25.10322 102.94202 6916 ft 33 kts 234°
2026-04-24 06:50 25.10260 102.94095 6916 ft 3 kts 245°